2024-149AN

Last updated on Mon Sep 16 2024 00:02:03 GMT+0000 (Coordinated Universal Time)

1 60504U 24149AN 24259.48951353 .00014571 00000+0 70533-3 0 9993 2 60504 97.4419 334.6005 0005160 45.6882 314.4775 15.18662219 4508
UTC large
Height (km)
Speed (km/s)
/
Latitude / Longitude
Inclination (degrees)
Orbital Period (minutes)
Azimuth
Elevation
Range (km)
Doppler Factor

Next 0 passes for location: London (51.5072 / 0.1276)

Sorry there are no passes over London.